Voltar ao catálogo

ONEWEB-0225

AtivoComunicaçõesPO
NORAD 48799·PAYLOAD·🇬🇧 United Kingdom

Lançado May 28, 2021 de Vostochny Cosmodrome

Loading…

Próximas Passagens (próximas 24 horas)

TLE

AtualizadoSource: CelesTrak SupGP

Época: Sep 14, 2026, 21:17 UTC

1 48799C 21045AJ  26257.88734213  .00003011  00000+0  80069-2 0  2573
2 48799  87.8983 241.3152 0002248  71.8921 312.2244 13.15542936    12

Acompanhe ONEWEB-0225 em tempo real com AllMySat

Download on the App Store